x

Diamond Shoals (41025) Wave Buoy

8:50 - Wed 24th May 2017 All times are EDT. -4 hours from GMT.

  • Sig Wave height 5.2ft
  • Swell Direction
  • Peak Period 8s
  • Average Period 5s
  • Wind
    13mph, 13mph gusts
  • Sea Temp 74°f
  • Ar Temp 73°f
  • Sea Pressure 1005.5mb
  • Diamond Shoals
  • Diamond Shoals

More Historic Weather Station data

Upgrade to MSW Pro to gain access to the past 30 days of data for over 8000 Wavebouys and Weather Stations around the globe.

Join Pro

Comparision Forecast

View Surf forecast
   
Qua 05/24 8:50 5ft 8s 5s 13 13 mph 1005.5mb 74f 73f
7:50 6ft 7s 5s 16 18 mph 1004.8mb 74f 74f
6:50 6ft 5s 5s 18 20 mph 1004.2mb 74f 74f
5:50 6.5ft 6s 5s 22 27 mph 1004mb 75f 74f
4:50 6ft 5s 5s 20 27 mph 1003.9mb 74f 74f
3:50 5ft 5s 5s 25 29 mph 1004.4mb 74f 74f
2:50 5.5ft 7s 5s 22 27 mph 1004.8mb 74f 73f
1:50 6.5ft 6s 5s 27 31 mph 1005.3mb 75f 73f
12:50 5.5ft 8s 5s 22 27 mph 1005.6mb 75f 74f
Ter 05/23 11:50 5.5ft 7s 5s 25 29 mph 1005.4mb 75f 76f
10:50 5.5ft 5s 5s 18 20 mph 1006.3mb 75f 76f
9:50 6ft 7s 5s 20 22 mph 1006.3mb 75f 76f
8:50 6ft 7s 5s 22 29 mph 1006.6mb 75f 75f
7:50 7ft 7s 5s 22 27 mph 1006.8mb 76f 76f
6:50 7ft 6s 5s 27 34 mph 1006.5mb 76f 76f
5:50 6ft 5s 5s 27 31 mph 1006.3mb 76f 76f
4:50 6ft 6s 5s 27 31 mph 1007mb 77f 75f
3:50 5ft 6s 5s 25 29 mph 1007.5mb 77f 75f
2:50 5.5ft 6s 5s 22 27 mph 1008.4mb 77f 73f
1:50 5ft 5s 5s 22 29 mph 1009mb 77f 73f
12:50 4.5ft 5s 4s 27 31 mph 1009.9mb 77f 75f
11:50 3.5ft 5s 4s 13 20 mph 1011.5mb 77f 75f
10:50 4ft 5s 4s 13 16 mph 1011.9mb 77f 74f
9:50 4ft 5s 4s 18 20 mph 1012mb 77f 74f
8:50 4.5ft 5s 5s 16 18 mph 1012.1mb 77f 74f
7:50 4.5ft 5s 5s 22 25 mph 1012mb 77f 74f
6:50 4.5ft 5s 5s 22 27 mph 1012.4mb 77f 73f
5:50 4ft 5s 5s 9 11 mph 1012.7mb 77f 73f
4:50 4ft 5s 4s 20 25 mph 1012.5mb 78f 73f
3:50 4ft 5s 4s 22 27 mph 1012.6mb 78f 75f
2:50 3.5ft 5s 4s 20 22 mph 1013.2mb 78f 74f
1:50 3ft 8s 5s 20 22 mph 1013.8mb 78f 74f
12:50 3ft 8s 5s 11 11 mph 1015mb 78f 75f
Seg 05/22 11:50 3.5ft 8s 5s 11 13 mph 1015.8mb 78f 72f
10:50 3.5ft 9s 4s 20 25 mph 1016.4mb 78f 71f
9:50 4.5ft 9s 4s 18 20 mph 1016.8mb 78f 72f
8:50 4.5ft 8s 5s 20 25 mph 1015.4mb 78f 78f
7:50 4ft 8s 5s 20 25 mph 1014.7mb 78f 78f
6:50 4ft 8s 5s 16 20 mph 1014mb 78f 78f
5:50 3.5ft 8s 5s 16 20 mph 1014.2mb 78f 78f
4:50 3.5ft 8s 5s 16 20 mph 1014.9mb 78f 77f
3:50 3.5ft 8s 6s 16 20 mph 1015.6mb 78f 77f
2:50 3.5ft 8s 6s 13 18 mph 1016.3mb 78f 77f
1:50 4ft 8s 6s 11 13 mph 1017.4mb 78f 77f
12:50 3.5ft 8s 6s 9 11 mph 1018.1mb 78f 76f
11:50 4ft 8s 6s 9 9 mph 1018.6mb 78f 75f
10:50 4ft 8s 6s 7 9 mph 1019.1mb 78f 75f
9:50 4.5ft 9s 6s 9 11 mph 1019.3mb 78f 74f
8:50 4.5ft 8s 6s 7 9 mph 1019.3mb 78f 74f
7:50 4ft 9s 6s 7 7 mph 1019.5mb 78f 73f
6:50 4.5ft 10s 6s 9 11 mph 1019.1mb 78f 73f
5:50 4.5ft 8s 6s 11 16 mph 1018.8mb 78f 73f
4:50 4.5ft 8s 5s 16 18 mph 1018.6mb 79f 76f
3:50 5ft 8s 5s 18 20 mph 1018.5mb 79f 76f
2:50 5ft 7s 5s 18 22 mph 1018.7mb 79f 76f
1:50 5ft 9s 5s 18 22 mph 1019.3mb 79f 76f
12:50 4.5ft 8s 5s 20 22 mph 1019.7mb 79f 76f
Dom 05/21 11:50 5ft 8s 5s 18 20 mph 1020.3mb 79f 76f
10:50 4.5ft 8s 5s 18 22 mph 1020.6mb 79f 76f
9:50 5ft 9s 5s 20 22 mph 1020.7mb 79f 76f
8:50 4.5ft 11s 5s 20 25 mph 1020.3mb 78f 76f
7:50 4.5ft 11s 6s 18 20 mph 1020.4mb 78f 77f
6:50 4ft 9s 6s 13 20 mph 1020.2mb 78f 77f
5:50 4.5ft 10s 6s 13 16 mph 1020.1mb 78f 71f
4:50 4ft 10s 5s 16 18 mph 1020.5mb 78f 69f
3:50 4ft 9s 5s 18 20 mph 1020.7mb 77f 69f
2:50 3.5ft 8s 5s 16 18 mph 1021.8mb 77f 69f
1:50 4ft 9s 5s 16 18 mph 1021.8mb 77f 69f
12:50 4ft 10s 5s 18 20 mph 1022.4mb 77f 68f
11:50 4ft 8s 5s 16 18 mph 1023mb 76f 68f
10:50 3.5ft 9s 5s 18 20 mph 1022.6mb 75f 68f
9:50 3ft 7s 4s 18 22 mph 1022.8mb 75f 68f
8:50 2.5ft 7s 4s 18 20 mph 1023.2mb 75f 68f
7:50 3.5ft 7s 4s 18 20 mph 1022.5mb 75f 67f
6:50 3.5ft 6s 5s 16 20 mph 1022mb 75f 67f
5:50 3.5ft 7s 5s 18 20 mph 1021.2mb 75f 67f
4:50 3.5ft 8s 5s 18 20 mph 1021.2mb 75f 67f
3:50 3.5ft 7s 5s 13 16 mph 1020.8mb 75f 68f
2:50 3.5ft 7s 5s 16 18 mph 1021.5mb 75f 67f
1:50 3.5ft 4s 4s 16 18 mph 1021.8mb 75f 68f
12:50 3ft 5s 4s 18 20 mph 1021.8mb 74f 68f
Sáb 05/20 11:50 3.5ft 4s 4s 16 22 mph 1021.8mb 74f 68f
10:50 3ft 4s 4s 20 22 mph 1021.5mb 74f 69f
9:50 3ft 4s 4s 20 22 mph 1021.6mb 74f 69f
8:50 3ft 4s 4s 18 22 mph 1020.7mb 74f 69f
7:50 2.5ft 3s 4s 16 20 mph 1021.2mb 75f 69f
6:50 2.5ft 4s 4s 13 16 mph 1020.3mb 75f 70f
5:50 2.5ft 4s 4s 18 22 mph 1019.9mb 75f 71f
4:50 2.5ft 4s 4s 11 13 mph 1019.3mb 75f 75f
3:50 2.5ft 4s 4s 13 16 mph 1019.1mb 75f 75f
2:50 2.5ft 4s 4s 13 16 mph 1019.4mb 75f 75f
1:50 2.5ft 4s 4s 13 16 mph 1019.9mb 75f 74f